Location: Avchaly
(41.8167°N, 44.8000°E)
Time: 00:34:50
(UTC+00:00)

Daily predictions for brighter satellites

Satellite Brightness Start Highest point End
(mag) Time Altitude Azimuth Time Altitude Azimuth Time Altitude Azimuth
CENTAUR R/B 3.7 00:41:42 37° ENE 00:41:42 37° ENE 00:46:07 10° NE
Cosmos 1943 Rocket 3.9 00:43:26 28° ENE 00:43:26 28° ENE 00:46:33 10° NE
Cosmos 2344 3.9 00:43:28 56° NE 00:43:28 56° NE 00:49:19 10° NE
NOSS 3-2 (C) 4.2 00:58:35 44° E 00:58:35 44° E 01:03:35 10° NE
Meteor 2-3 Rocket 4.4 01:10:31 10° SSE 01:15:57 51° E 01:21:28 10° NNE
Cosmos 968 Rocket 4.2 01:22:10 38° SSE 01:23:35 49° ESE 01:28:32 10° NNE
USA 238 DEB 3.4 01:25:09 80° SSW 01:25:32 87° ESE 01:32:21 10° NE
USA 238 3.5 01:25:12 79° SSW 01:25:38 86° ESE 01:32:27 10° NE
Gbstr 26 Del rocket 4.4 01:35:59 31° SE 01:35:59 31° SE 01:38:18 10° SE
USA 215 3.9 01:29:56 10° E 01:36:05 46° NNE 01:38:22 34° NNW
Cosmos 921 Rocket 4.5 01:36:54 29° NNE 01:38:11 35° ENE 01:42:17 10° SE
Cosmos 1816 Rocket 4.3 01:32:47 10° SSW 01:38:59 77° W 01:45:18 10° N
Genesis I 4.5 01:39:39 40° ENE 01:39:39 40° ENE 01:43:04 10° ESE
Cosmos 2034 Rocket 3.8 01:39:19 73° W 01:39:24 73° W 01:45:39 10° S
Cosmos 1570 Rocket 4.0 01:41:27 75° S 01:41:27 75° S 01:46:14 10° SSE
Cosmos 1812 4.4 01:46:45 22° NNE 01:48:29 32° ENE 01:51:57 10° SE
Cosmos 1814 Rocket 4.4 01:51:54 46° SSW 01:51:54 46° SSW 01:55:42 10° S
Cosmos 2369 Rocket 2.4 01:49:44 10° SSW 01:55:15 68° ESE 02:00:49 10° NNE
MOS 1-B Rocket 4.0 01:51:56 10° SSE 01:58:27 86° ENE 02:03:45 13° NNW
Cosmos 1634 Rocket 4.0 01:55:32 10° N 02:01:51 80° E 02:08:04 10° S
Cosmos 1782 2.8 02:04:38 71° S 02:04:38 71° S 02:08:09 10° S
Meteor 1-31 Rocket 3.4 02:01:18 10° NNE 02:05:08 55° E 02:08:58 10° S
Tsikada Rocket 3.9 02:00:19 10° SSW 02:06:25 61° W 02:12:38 10° N
COSMO-SKYMED 1 2.8 02:04:10 10° SSE 02:08:29 70° ENE 02:11:23 20° N
SJ-12 3.8 02:04:39 10° NNE 02:08:49 88° ESE 02:12:57 10° SSW
Cosmos 1862 4.2 02:06:12 10° SSE 02:10:00 49° E 02:13:49 10° NNE
Cosmos 1867 3.6 02:09:32 49° W 02:10:25 55° WSW 02:15:42 10° SSE
Cosmos 2208 Rocket 4.1 02:11:43 45° WNW 02:13:02 57° WSW 02:18:15 10° S
Helios 1B 4.4 02:13:14 10° SSE 02:17:34 86° WSW 02:20:10 24° NNW
H-2A R/B 2.5 02:15:28 10° N 02:19:09 68° WNW 02:22:52 10° SSW
Cosmos 1656 Rocket 3.7 02:14:23 10° SSW 02:19:47 77° ESE 02:25:13 10° NNE
SL-19 R/B 4.3 02:17:33 10° S 02:23:05 59° WSW 02:27:17 18° NNW
Cosmos 1943 Rocket 2.8 02:25:02 33° WNW 02:25:08 33° WNW 02:30:14 10° N
CZ-2C R/B 2.6 02:19:50 10° S 02:25:21 79° WSW 02:30:47 10° NNW
Cosmos 1486 Rocket 3.9 02:24:50 10° SSW 02:30:07 70° WNW 02:35:24 10° NNE
CENTAUR R/B 3.2 02:28:55 30° WNW 02:30:36 34° NW 02:37:01 10° NNE
CZ-4C R/B 2.8 02:33:43 10° SSE 02:36:51 77° ENE 02:39:02 18° N
CZ-3 R/B 4.5 02:32:52 10° SSW 02:38:24 14° S 02:41:57 10° SSE
SL-8 R/B 4.2 02:38:25 26° NW 02:40:50 50° NNE 02:45:29 10° E
NOSS 3-2 (A) 4.4 02:40:24 22° NW 02:41:44 24° NNW 02:46:57 10° NNE
Cosmos 1515 Rocket 4.5 02:39:56 10° N 02:44:11 49° E 02:48:23 10° SSE
NOAA 11 4.3 02:41:20 10° NNE 02:46:50 84° ESE 02:52:20 10° SSW
NOSS 3-2 (C) 4.1 02:46:05 22° W 02:48:48 33° NW 02:54:35 10° NNE
SJ 16-02 3.0 02:46:46 10° SSE 02:50:47 36° ESE 02:54:48 10° NE
Iridium 2 4.3 02:47:24 10° SSW 02:50:52 34° W 02:54:22 10° NNW
Meteor 2-8 Rocket 4.4 02:45:02 10° N 02:51:13 86° W 02:57:19 10° S
Meteor 2-6 Rocket 4.1 02:50:28 10° NNW 02:55:49 64° W 03:01:08 10° S
Envisat 3.5 02:51:29 10° N 02:56:05 35° WNW 03:00:40 10° SW
SKYMED 2 4.2 02:52:41 10° SSW 02:56:37 34° W 02:59:59 13° NW
DELTA 2 R/B (1) 4.0 02:52:13 12° WSW 02:57:22 60° SSE 03:02:50 10° E
ATLAS 3B R/B 4.0 02:51:30 10° S 02:57:32 43° ESE 03:03:48 10° NE
BREEZE-M DEB (TANK) 4.2 02:57:27 19° NW 02:59:27 33° NNE 03:06:43 10° ENE
Cosmos 2098 Rocket 3.6 02:57:12 10° SW 03:00:36 31° WNW 03:04:45 10° N
Cosmos 1340 Rocket 4.0 02:58:14 10° SSE 03:01:59 45° E 03:05:48 10° NNE
Cosmos 1500 Rocket 4.5 02:57:59 10° S 03:02:18 53° E 03:06:40 10° NNE
Landsat 5 4.3 03:02:45 10° SSW 03:06:53 35° W 03:11:02 10° NNW
FALCON 9 R/B 4.2 02:48:26 13° W 03:08:19 53° SSW 03:14:35 10° SE
BREEZE M DEB (TANK) 3.9 03:07:48 15° NW 03:09:40 21° N 03:11:33 10° NE
Cosmos 1939 Rocket 3.1 03:06:15 10° NNE 03:10:11 72° ESE 03:14:03 10° S
Meteor 1-10 Rocket 4.2 03:06:03 10° NNW 03:11:33 65° W 03:17:01 10° S
SL-27 R/B 3.2 03:08:28 10° N 03:12:01 55° ENE 03:15:29 10° SSE
ATLAS 5 CENTAUR R/B 2.2 03:09:43 10° SSW 03:13:22 52° ESE 03:17:23 10° NE
DNEPR-1 R/B 4.1 03:08:54 11° NW 03:13:34 66° WSW 03:19:26 10° SSE
Okean 3 Rocket 4.3 03:10:58 10° SW 03:15:03 33° WNW 03:19:11 10° N
Cosmos 1833 4.3 03:10:19 10° NNW 03:15:58 66° WSW 03:21:38 10° S
Cosmos 1174 4.2 03:13:14 10° SSW 03:16:07 46° ESE 03:19:02 10° NE
Cosmos 921 Rocket 4.4 03:13:45 14° WNW 03:16:13 21° W 03:19:32 10° SW
H-2A R/B 2.1 03:12:40 10° SSE 03:16:53 87° ENE 03:21:15 10° NNW
USA 215 3.4 03:12:29 10° SE 03:18:56 62° SW 03:25:25 10° NW
ADEOS 3.9 03:14:07 10° N 03:19:04 44° WNW 03:23:58 10° SW
Cosmos 1354 Rocket 4.2 03:17:27 10° SW 03:22:33 50° WNW 03:27:43 10° N
Cosmos 1812 4.3 03:21:51 11° NW 03:23:54 16° W 03:26:16 10° SW
CZ-2C R/B 3.0 03:22:10 10° N 03:26:54 54° WNW 03:31:49 10° SSW
Cosmos 1151 Rocket 4.4 03:25:51 10° NW 03:28:59 19° W 03:32:06 10° SW
Geosat FO 4.4 03:27:44 10° SSE 03:31:02 63° WSW 03:34:20 10° NNW
Cosmos 2297 Rocket 4.1 03:32:04 10° N 03:36:39 25° NE 03:41:12 10° ESE
Cosmos 1515 3.9 03:33:27 10° N 03:37:15 75° E 03:41:03 10° SSE
Meteor PRIRODA 4.5 03:35:22 10° N 03:38:29 27° WNW 03:41:35 10° SW
Cosmos 2369 Rocket 3.4 03:35:46 10° W 03:39:48 20° NW 03:43:52 10° N
Nadezhda 4 Rocket 4.1 03:34:16 10° SSW 03:40:15 53° WNW 03:46:20 10° N
FengYun 1-2 T 4.2 03:35:33 10° N 03:41:00 65° WNW 03:46:24 10° SSW
